INMARSAT 4-F3

Last updated on Thu Nov 21 2024 00:02:41 GMT+0000 (Coordinated Universal Time)

1 33278U 08039A 24325.27577382 -.00000139 00000+0 00000+0 0 9992 2 33278 3.8242 28.6102 0002968 214.5510 177.9276 1.00272183 40799
UTC large
Height (km)
Speed (km/s)
/
Latitude / Longitude
Inclination (degrees)
Orbital Period (minutes)
Azimuth
Elevation
Range (km)
Doppler Factor

Next 0 passes for location: London (51.5072 / 0.1276)

Sorry there are no passes over London.